Location: ???????
(54.9996°N, 37.9529°E)
Time: 19:47:22
(UTC+00:00)

BlueWalker 3 - Pass Details

Date: 14 April 2024
Orbit: 481 x 494 km, 53.2° (Epoch: 26 May)

Event Time Altitude Azimuth Distance (km) Brightness Sun altitude
Exits shadow 22:56:56 24° 106° (ESE) 1,060 3.6 -22.9°
Drops below altitude 10° 22:58:36 10° 102° (ESE) 1,700 4.7 -22.8°
Enters shadow 00:08:15 -43° 289° (WNW) 9,377 8.3 -17.4°
